KN4RPA Weather Reports


Display with metric or nautical units.
time (UTC)temp
F
wind
direction
speed
MPH
gust
MPH
rain 1hr
in
rain 24hr
in
rain mn
in
humidity
%
barometer
mb
20221204224601 43 112 0.0 0.0 0.00 0.00 0.00 49 1021.8
20221204223057 44 112 0.0 0.0 0.00 0.00 0.00 46 1021.4
20221204221556 44 112 0.0 0.0 0.00 0.00 0.00 45 1021.3
20221204220055 45 112 0.0 0.0 0.00 0.00 0.00 43 1021.1
20221204214555 46 112 0.0 0.0 0.00 0.00 0.00 41 1021.2
20221204213053 47 112 0.0 2.0 0.00 0.00 0.00 41 1021.5
20221204211552 47 112 0.0 1.0 0.00 0.00 0.00 36 1021.5
20221204210050 47 112 0.0 1.0 0.00 0.00 0.00 37 1021.6
20221204204554 48 112 0.0 3.0 0.00 0.00 0.00 36 1021.9
20221204203055 48 111 0.0 1.0 0.00 0.00 0.00 36 1021.8
20221204201546 48 111 0.0 1.0 0.00 0.00 0.00 38 1022.2
20221204200049 48 111 0.0 1.0 0.00 0.00 0.00 35 1022.1
20221204194546 47 111 0.0 6.0 0.00 0.00 0.00 34 1021.9
20221204193045 47 166 0.0 0.0 0.00 0.00 0.00 33 1022.1
20221204191543 47 166 0.0 1.0 0.00 0.00 0.00 36 1022.4
20221204190044 48 166 0.0 6.0 0.00 0.00 0.00 37 1022.0
20221204184542 47 166 0.0 2.0 0.00 0.00 0.00 38 1022.0
20221204183043 48 166 0.0 5.0 0.00 0.00 0.00 35 1022.1
20221204181539 46 168 2.0 5.0 0.00 0.00 0.00 38 1022.1
20221204180038 47 77 1.0 4.0 0.00 0.00 0.00 39 1022.2
20221204174538 47 67 0.0 3.0 0.00 0.00 0.00 43 1022.7
20221204173041 46 69 0.0 2.0 0.00 0.00 0.00 41 1022.8
20221204171535 44 64 0.0 4.0 0.00 0.00 0.00 44 1023.0
20221204170036 45 67 0.0 2.0 0.00 0.00 0.00 44 1023.0
20221204164537 44 66 0.0 2.0 0.00 0.01 0.00 46 1023.3
20221204163044 44 53 0.0 2.0 0.00 0.01 0.00 47 1023.3
20221204161537 43 53 0.0 4.0 0.00 0.01 0.00 50 1023.9
20221204160032 43 53 0.0 2.0 0.00 0.01 0.00 48 1024.0
20221204154600 41 53 0.0 3.0 0.00 0.03 0.00 49 1024.3
20221204153031 41 54 0.0 4.0 0.00 0.03 0.00 52 1024.5
20221204151537 41 50 0.0 3.0 0.00 0.03 0.00 53 1024.5
20221204150028 41 53 0.0 2.0 0.00 0.03 0.00 52 1024.6
20221204144528 40 49 0.0 1.0 0.00 0.10 0.00 55 1024.7
20221204143031 39 50 0.0 2.0 0.00 0.10 0.00 58 1024.7
20221204141520 39 49 0.0 1.0 0.00 0.10 0.00 59 1024.7
20221204140019 38 49 0.0 1.0 0.00 0.10 0.00 60 1024.6
20221204134519 37 44 0.0 1.0 0.00 0.17 0.00 62 1024.7
20221204133016 36 44 0.0 0.0 0.00 0.17 0.00 65 1024.6
20221204131513 35 44 0.0 1.0 0.00 0.17 0.00 66 1024.6
20221204130016 35 44 0.0 0.0 0.00 0.17 0.00 65 1024.5
20221204124508 36 44 0.0 0.0 0.00 0.19 0.00 64 1024.7
20221204123006 36 44 0.0 0.0 0.00 0.19 0.00 63 1024.6
20221204121503 36 44 0.0 0.0 0.00 0.19 0.00 63 1024.4
20221204120105 37 44 0.0 4.0 0.00 0.19 0.00 62 1024.3
20221204114600 37 36 0.0 2.0 0.00 0.20 0.00 62 1024.0
20221204113102 37 35 0.0 5.0 0.00 0.20 0.00 62 1023.9
20221204111554 37 64 0.0 4.0 0.00 0.20 0.00 62 1023.5
20221204110053 38 53 0.0 2.0 0.00 0.20 0.00 62 1023.6
20221204104551 38 53 0.0 1.0 0.00 0.20 0.00 62 1023.4
20221204103053 38 57 0.0 2.0 0.00 0.20 0.00 61 1023.1
20221204101547 39 49 0.0 2.0 0.00 0.20 0.00 61 1023.1
20221204100044 39 32 0.0 2.0 0.00 0.20 0.00 60 1023.2
20221204094544 39 32 0.0 2.0 0.00 0.20 0.00 60 1023.0
20221204093053 40 32 0.0 5.0 0.00 0.20 0.00 58 1022.9
20221204091539 40 33 0.0 4.0 0.00 0.20 0.00 58 1022.6
20221204090037 41 33 0.0 4.0 0.00 0.20 0.00 57 1022.7
20221204084539 41 33 0.0 3.0 0.00 0.20 0.00 57 1022.8
20221204083036 41 33 0.0 6.0 0.00 0.20 0.00 56 1022.9
20221204081534 41 355 1.0 8.0 0.00 0.20 0.00 56 1023.0
20221204080033 41 34 0.0 5.0 0.00 0.20 0.00 55 1023.0
20221204074533 41 66 0.0 4.0 0.00 0.20 0.00 56 1023.0
20221204073032 41 52 0.0 2.0 0.00 0.20 0.00 56 1023.1
20221204071529 41 52 0.0 1.0 0.00 0.20 0.00 55 1023.0
20221204070030 42 52 0.0 1.0 0.00 0.20 0.00 55 1022.4
20221204064527 43 52 0.0 0.0 0.00 0.20 0.00 53 1022.3
20221204063023 44 52 0.0 2.0 0.00 0.20 0.00 51 1022.2
20221204061519 44 52 0.0 0.0 0.00 0.20 0.00 48 1022.3
20221204060017 45 52 0.0 3.0 0.00 0.20 0.00 48 1022.2
20221204054515 46 52 0.0 2.0 0.00 0.20 0.00 47 1022.3
20221204053026 46 52 0.0 1.0 0.00 0.20 0.00 44 1022.4
20221204051519 47 52 0.0 2.0 0.00 0.20 0.00 43 1022.2
20221204050009 48 52 0.0 3.0 0.00 0.20 0.00 42 1022.7
20221204044507 48 52 1.0 4.0 0.00 0.20 0.20 42 1022.5
20221204043006 49 59 1.0 5.0 0.00 0.20 0.20 42 1022.5
20221204041504 50 84 0.0 3.0 0.00 0.20 0.20 42 1022.5
20221204040005 50 48 1.0 6.0 0.00 0.20 0.20 41 1022.6
20221204034503 51 13 1.0 10.0 0.00 0.20 0.20 42 1021.8
20221204033002 51 36 0.0 6.0 0.00 0.20 0.20 44 1022.1
20221204031501 52 39 0.0 0.0 0.00 0.20 0.20 44 1022.2
20221204030002 53 39 0.0 10.0 0.00 0.20 0.20 42 1021.8
20221204024559 53 14 1.0 6.0 0.00 0.20 0.20 48 1021.4
20221204023105 53 49 1.0 8.0 0.00 0.20 0.20 60 1021.4
20221204021555 53 70 0.0 4.0 0.00 0.20 0.20 75 1021.3
20221204020058 54 157 0.0 3.0 0.00 0.20 0.20 83 1021.1
20221204014608 55 159 0.0 3.0 0.00 0.20 0.20 85 1020.9
20221204013053 56 159 0.0 1.0 0.00 0.20 0.20 86 1020.3
20221204011556 56 159 0.0 5.0 0.00 0.20 0.20 85 1020.1
20221204010051 56 161 0.0 1.0 0.00 0.20 0.20 85 1020.0
20221204004600 57 161 0.0 5.0 0.00 0.20 0.20 85 1019.8
20221204003050 57 190 0.0 3.0 0.00 0.20 0.20 85 1019.5
20221204001551 57 191 1.0 5.0 0.00 0.20 0.20 84 1019.2
20221204000049 57 190 0.0 3.0 0.00 0.20 0.20 84 1019.0
20221203234557 58 190 0.0 4.0 0.00 0.20 0.20 83 1018.8
20221203233049 58 190 0.0 4.0 0.00 0.20 0.20 83 1018.5
20221203231604 58 190 0.0 7.0 0.00 0.20 0.20 82 1018.3
20221203230048 58 148 0.0 8.0 0.00 0.20 0.20 82 1018.0